[[[{"header":{"parameterUnit":"kt","parameterCategory":2,"dx":1,"dy":1,"la1":30.253999710083008,"la2":30.299108505249023,"lo1":-89.0895004272461,"lo2":-89.04439544677734,"nx":28,"ny":28,"refTime":"2022-10-12T21:00:00:Z","depth":0,"parameterNumber":1,"parameterNumberName":"U-component_of_WINDS"},"data":[-4.3007,-4.2948,-4.2851,-4.2736,-4.2629,-4.2531,-4.2464,-4.2365,-4.2261,-4.2128,-4.2033,-4.1924,-4.1775,-4.1633,-4.152,-4.1471,-4.1428,-4.148,-4.1413,-4.1282,-4.1257,-4.1232,-4.124,-4.1474,-4.1474,-4.1561,-4.1562,-4.1563,-4.2916,-4.281,-4.2723,-4.2571,-4.2493,-4.2385,-4.2252,-4.2192,-4.2106,-4.1978,-4.1879,-4.1752,-4.1637,-4.1467,-4.1336,-4.1299,-4.1237,-4.1271,-4.1269,-4.1246,-4.1103,-4.1113,-4.1323,-4.1323,-4.1323,-4.1323,-4.1323,-4.1323,-4.2722,-4.2692,-4.2543,-4.2446,-4.2342,-4.224,-4.2191,-4.2059,-4.1968,-4.1826,-4.1723,-4.1621,-4.1469,-4.1261,-4.1166,-4.1079,-4.1022,-4.1024,-4.1024,-4.1026,-4.1042,-4.0921,-4.1052,-4.1051,-4.105,-4.1049,-4.1049,0,-4.2549,-4.2469,-4.2379,-4.2259,-4.2182,-4.2078,-4.1965,-4.1932,-4.1723,-4.1656,-4.1549,-4.1469,-4.1309,-4.1193,-4.1048,-4.0945,-4.0817,-4.0795,-4.0795,-4.0841,-4.0902,-4.0864,-4.0631,-4.079,-4.0788,-4.0786,-4.0784,-4.0783,-4.2342,-4.232,-4.2116,-4.2066,-4.198,-4.19,-4.1831,-4.1649,-4.1583,-4.1413,-4.1392,-4.1275,-4.1171,-4.1012,-4.085,-4.0728,-4.0664,-4.0735,-4.0644,-4.0691,-4.0657,-4.0659,-4.0652,-4.0755,-4.0759,-4.0762,-4.0764,0,-4.2234,-4.2073,-4.2006,-4.1804,-4.1753,-4.1737,-4.1561,-4.152,-4.1395,-4.1321,-4.1292,-4.1094,-4.0989,-4.0815,-4.0659,-4.057,-4.0529,-4.0472,-4.0579,-4.0557,-4.0599,-4.0596,-4.0776,-4.0787,-4.055,-4.0552,-4.0555,0,-4.1991,-4.1969,-4.1728,-4.1698,-4.1664,-4.1482,-4.1452,-4.1342,-4.121,-4.1149,-4.0982,-4.0928,-4.0713,-4.0632,-4.0501,-4.0437,-4.0409,-4.0335,-4.0299,-4.0347,-4.0356,-4.0303,-4.029,-4.0227,-4.0226,-4.0225,-4.0225,0,-4.1836,-4.1682,-4.1632,-4.157,-4.1351,-4.1331,-4.1238,-4.1089,-4.1022,-4.0907,-4.086,-4.0739,-4.0671,-4.0576,-4.041,-4.0354,-4.0329,-4.0217,-4.0252,-4.0256,-4.0252,-4.0254,-4.0462,-4.0224,-4.0223,-4.0223,-4.0223,0,-4.1613,-4.1507,-4.1461,-4.1273,-4.1239,-4.1206,-4.1076,-4.1007,-4.0862,-4.0778,-4.0685,-4.055,-4.0485,-4.0386,-4.0289,-4.0263,-4.0204,-4.0128,-4.0127,-4.0106,-3.9999,-4.0134,-4.0355,-4.0368,-4.0092,-4.0091,-4.009,0,-4.1476,-4.1387,-4.123,-4.1189,-4.1123,-4.0938,-4.0897,-4.0774,-4.066,-4.0582,-4.0453,-4.0366,-4.0256,-4.0204,-4.018,-4.0041,-4.0075,-4.0032,-3.9912,-3.991,-3.9953,-4.0155,-4.0229,-4.0327,-4.0074,-4.0075,-4.0077,0,-4.1349,-4.1088,-4.1092,-4.1012,-4.0825,-4.0768,-4.0723,-4.0598,-4.0555,-4.0437,-4.0389,-4.0265,-4.0174,-4.0091,-3.9968,-3.9952,-4.0046,-3.9856,-3.9849,-3.9892,-4.0053,-4.0123,-4.014,-3.9965,-3.9967,-3.9968,-4.0064,0,-4.1042,-4.0977,-4.0983,-4.0816,-4.0747,-4.0713,-4.0531,-4.0481,-4.037,-4.0249,-4.0178,-4.003,-3.9899,-3.9875,-3.9766,-3.9788,-3.9755,-3.966,-3.9547,-3.9683,-3.9709,-3.9721,-3.9523,-3.9518,-3.9515,-3.9512,0,0,-4.0948,-4.0852,-4.0681,-4.0632,-4.0562,-4.037,-4.0349,-4.0257,-4.0078,-4.0031,-3.9968,-3.9772,-3.9654,-3.9585,-3.9613,-3.9563,-3.9547,-3.9507,-3.9621,-3.9634,-3.9646,-3.9677,-3.9692,-3.9505,-3.9504,-3.9502,-3.9501,0,-4.0797,-4.0691,-4.0675,-4.0574,-4.0418,-4.0292,-4.0289,-4.0099,-4.002,-3.9952,-3.9789,-3.9724,-3.9574,-3.9468,-3.9395,-3.9512,-3.939,-3.9487,-3.961,-3.9591,-3.9609,-3.9624,-3.966,-3.9676,-3.9492,-3.9493,-3.9493,0,-4.0636,-4.0499,-4.0474,-4.031,-4.0205,-4.0143,-3.9981,-3.9924,-3.9873,-3.966,-3.9595,-3.9488,-3.9332,-3.9294,-3.9269,-3.9209,-3.9258,-3.9211,-3.923,-3.9221,-3.9193,-3.9215,-3.9235,-3.8976,-3.8975,-3.8974,0,0,-4.053,-4.0471,-4.0265,-4.0264,-4.021,-4.0022,-3.9971,-3.9855,-3.9723,-3.9671,-3.953,-3.9404,-3.9313,-3.9257,-3.9163,-3.9148,-3.9097,-3.9156,-3.918,-3.92,-3.9204,-3.9181,-3.9203,-3.897,-3.897,-3.897,0,0,-4.0477,-4.0241,-4.0154,-4.0131,-4.0013,-3.9807,-3.9811,-3.9698,-3.9596,-3.9579,-3.9376,-3.9334,-3.9294,-3.9195,-3.9165,-3.9118,-3.901,-3.9014,-3.9184,-3.9212,-3.9236,-3.9258,-3.8974,0,0,0,0,0,-4.0231,-4.027,-4.0194,-4.0163,-3.9954,-3.9851,-3.9822,-3.9659,-3.9585,-3.9592,-3.9456,-3.933,-3.9136,-3.9104,-3.9074,-3.9108,-3.892,-3.8929,-3.8937,-3.9152,-3.9183,-3.921,0,0,0,0,0,0,-4.0217,-4.018,-4.0192,-3.9992,-3.9943,-3.9848,-3.9688,-3.9644,-3.958,-3.9558,-3.9361,-3.9324,-3.918,-3.9108,-3.9084,-3.912,-3.8982,-3.8923,-3.8931,-3.8938,-3.9163,-3.9188,-3.9211,0,0,0,0,0,-4.0205,-4.0176,-3.9884,-3.999,-3.9947,-3.9739,-3.9685,-3.9647,-3.9594,-3.9384,-3.9344,-3.9477,-3.9186,-3.9153,-3.9093,-3.9135,-3.8997,-3.8989,-3.8928,-3.8934,-3.8939,-3.9175,0,0,0,0,0,0,-4.0197,-4.0138,-3.9871,-3.9852,-3.9963,-3.9741,-3.9701,-3.9651,-3.9421,-3.9382,-3.949,-3.9475,-3.919,-3.9164,-3.914,-3.915,-3.901,-3.9002,-3.8996,-3.8933,-3.8937,-3.8941,0,0,0,0,0,0,-4.0153,-4.0124,-3.9861,-3.9837,-3.9814,-3.9744,-3.9708,-3.9632,-3.942,-3.9539,-3.9519,-3.9486,-3.9224,-3.9172,-3.9152,-3.9041,-3.902,-3.9012,-3.9006,-3.9003,-3.8936,-3.894,0,0,0,0,0,0,-4.0137,-4.0112,-3.9841,-3.9823,-3.9802,-3.9573,-3.9673,-3.9466,-3.9406,-3.9552,-3.9395,-3.939,-3.9235,-3.9212,-3.9162,-3.906,-3.9046,-3.902,-3.9014,-3.901,-3.9008,0,0,0,0,0,0,0,-4.0125,-4.0336,-3.9987,-3.9811,-3.9793,-3.9674,-3.9669,-3.9664,-3.9405,-3.94,-3.9396,-3.9392,-3.9068,-3.9059,-3.9049,-3.9076,0,0,-3.9021,-3.9017,0,0,0,0,0,0,0,0,-4.0343,-4.0338,-3.9986,-3.9982,-3.9978,-3.9673,-3.9669,-3.9665,-3.9404,-3.9401,-3.9397,-3.9394,-3.9065,-3.9058,-3.905,0,0,0,0,0,0,0,0,0,0,0,0,0,0,0,-3.9986,-3.9982,0,-3.9673,-3.9669,-3.9666,-3.9403,-3.9401,-3.9398,-3.9395,-3.9063,-3.9057,-3.9051,0,0,0,0,0,0,0,0,0,0,0,0,0,0,0,0,0,0,0,0,0,0,0,0,0,0,0,0,0,0,0,0,0,0,0,0,0,0,0,0,0,0,0,0,0,0,0,0,0,0,0,0,0,0,0,0,0,0,0,0,0,0,0,0,0,0,0,0,0]}],[{"header":{"parameterUnit":"kt","parameterCategory":2,"dx":1,"dy":1,"la1":30.253999710083008,"la2":30.299108505249023,"lo1":-89.0895004272461,"lo2":-89.04439544677734,"nx":28,"ny":28,"refTime":"2022-10-12T21:00:00:Z","depth":0,"parameterNumber":2,"parameterNumberName":"V-component_of_WINDS"},"data":[7.5389,7.5492,7.5549,7.5692,7.5766,7.5873,7.5928,7.6005,7.6079,7.6209,7.6294,7.6355,7.6448,7.6558,7.6649,7.6674,7.6711,7.6711,7.674,7.6695,7.6693,7.669,7.6673,7.6716,7.6716,7.6781,7.6782,7.6782,7.5363,7.544,7.553,7.5655,7.5734,7.5771,7.5871,7.5933,7.6025,7.6114,7.6199,7.6315,7.6412,7.6504,7.6606,7.6653,7.6674,7.6677,7.6676,7.6691,7.6644,7.6626,7.6659,7.6659,7.6659,7.6659,7.6659,7.6659,7.5334,7.5391,7.55,7.5599,7.5675,7.5757,7.5821,7.5898,7.5983,7.6098,7.6141,7.6243,7.634,7.6484,7.6543,7.6623,7.6628,7.6646,7.6652,7.6657,7.6659,7.6571,7.6641,7.6641,7.6641,7.6641,7.6641,0,7.533,7.5373,7.5461,7.5568,7.5641,7.5726,7.5812,7.5852,7.5953,7.6018,7.6117,7.6182,7.6308,7.6404,7.6507,7.6565,7.6604,7.661,7.6625,7.661,7.6586,7.6607,7.6535,7.6608,7.6608,7.6608,7.6608,7.6608,7.5308,7.5365,7.5502,7.5557,7.5617,7.5701,7.5763,7.5847,7.5908,7.6023,7.6066,7.6164,7.6246,7.6389,7.647,7.6561,7.6581,7.6606,7.6595,7.658,7.6589,7.6588,7.6597,7.6607,7.6607,7.6607,7.6607,0,7.5292,7.538,7.5485,7.5611,7.5645,7.57,7.5807,7.5864,7.5928,7.6016,7.6041,7.614,7.6231,7.6309,7.6424,7.6462,7.6556,7.6569,7.6527,7.6536,7.6569,7.6567,7.6654,7.6672,7.6622,7.6622,7.6622,0,7.5309,7.5379,7.5506,7.5561,7.5643,7.5727,7.5804,7.5866,7.595,7.6019,7.6076,7.6139,7.6227,7.63,7.6355,7.6443,7.6462,7.6498,7.6513,7.6496,7.6493,7.6529,7.6529,7.6534,7.6534,7.6533,7.6533,0,7.5278,7.5423,7.5514,7.5561,7.5699,7.5739,7.5797,7.589,7.5946,7.6029,7.6068,7.6156,7.6206,7.6274,7.6344,7.6335,7.6451,7.6453,7.6488,7.6487,7.6511,7.651,7.6565,7.6532,7.6532,7.6532,7.6532,0,7.5305,7.5393,7.5509,7.5628,7.5661,7.5717,7.5816,7.5882,7.5973,7.6013,7.6078,7.6125,7.6204,7.6202,7.6313,7.6283,7.6328,7.6368,7.6371,7.6386,7.6383,7.641,7.645,7.6461,7.6397,7.6396,7.6395,0,7.525,7.5388,7.5461,7.5566,7.5642,7.5706,7.577,7.5848,7.5907,7.5977,7.6038,7.6115,7.6128,7.6163,7.6207,7.6274,7.6312,7.6269,7.6371,7.6373,7.6353,7.6389,7.6379,7.6433,7.6382,7.6383,7.6384,0,7.5217,7.5384,7.5397,7.5456,7.5573,7.5633,7.5704,7.58,7.5844,7.5921,7.5985,7.6089,7.6107,7.616,7.6205,7.6247,7.6288,7.6258,7.6261,7.6266,7.6378,7.637,7.6379,7.6309,7.6311,7.6312,7.6373,0,7.525,7.5326,7.5364,7.5484,7.5542,7.5608,7.5693,7.5743,7.5784,7.5843,7.5932,7.601,7.6101,7.6127,7.6163,7.6233,7.6234,7.6248,7.6253,7.6274,7.6297,7.6306,7.6214,7.6215,7.6215,7.6216,0,0,7.5177,7.5289,7.5363,7.5436,7.5491,7.5554,7.5619,7.5677,7.5791,7.5826,7.583,7.5988,7.6048,7.6148,7.6161,7.6194,7.6216,7.6203,7.6262,7.6267,7.6272,7.6295,7.6302,7.6216,7.6217,7.6217,7.6217,0,7.5208,7.5275,7.5338,7.5403,7.5503,7.5562,7.5577,7.5684,7.5724,7.581,7.5858,7.5919,7.6038,7.61,7.6147,7.6193,7.6225,7.6213,7.6215,7.6264,7.6268,7.6272,7.6295,7.6302,7.6218,7.6218,7.6218,0,7.5194,7.5276,7.5314,7.5438,7.5501,7.5572,7.56,7.567,7.5724,7.5782,7.5866,7.5918,7.6004,7.6084,7.6122,7.6126,7.6229,7.6206,7.6205,7.6212,7.6263,7.6268,7.6272,7.6215,7.6215,7.6214,0,0,7.5208,7.5279,7.5389,7.545,7.5488,7.5575,7.5618,7.5664,7.5742,7.5773,7.5841,7.5913,7.5985,7.6029,7.6099,7.6174,7.62,7.6203,7.6203,7.6203,7.6209,7.626,7.6265,7.6213,7.6213,7.6213,0,0,7.5214,7.5347,7.5375,7.5456,7.5532,7.5642,7.5675,7.5711,7.5782,7.5783,7.5857,7.5879,7.5954,7.6002,7.5978,7.6102,7.6105,7.6112,7.6069,7.607,7.6071,7.6059,7.6014,0,0,0,0,0,7.5288,7.5332,7.5356,7.5382,7.5533,7.5629,7.5648,7.5714,7.5718,7.5743,7.5806,7.5835,7.6006,7.5987,7.6009,7.6035,7.6199,7.6201,7.6204,7.6167,7.6167,7.6168,0,0,0,0,0,0,7.5299,7.5331,7.5355,7.5465,7.55,7.5628,7.5649,7.5668,7.5717,7.5722,7.5822,7.5838,7.5892,7.598,7.5999,7.6022,7.6007,7.62,7.6202,7.6204,7.6167,7.6167,7.6168,0,0,0,0,0,7.5308,7.5334,7.556,7.5465,7.5495,7.5593,7.5648,7.5664,7.5702,7.5798,7.5815,7.5747,7.5891,7.5911,7.5991,7.6012,7.5995,7.6002,7.6201,7.6203,7.6205,7.6167,0,0,0,0,0,0,7.5315,7.5348,7.5567,7.5579,7.5454,7.5587,7.5611,7.566,7.5777,7.5794,7.5726,7.5729,7.5891,7.5907,7.5922,7.6005,7.5984,7.5991,7.5996,7.6203,7.6204,7.6205,0,0,0,0,0,0,7.5334,7.5357,7.5573,7.5555,7.5565,7.5582,7.5602,7.5677,7.5777,7.5698,7.5704,7.5726,7.5866,7.5903,7.5916,7.6029,7.5976,7.5983,7.5988,7.5991,7.6204,7.6205,0,0,0,0,0,0,7.5345,7.5364,7.5552,7.556,7.5569,7.5703,7.5648,7.5798,7.5766,7.5692,7.5765,7.5764,7.5861,7.5875,7.5911,7.6019,7.6027,7.5976,7.5981,7.5984,7.5986,0,0,0,0,0,0,0,7.5354,7.5209,7.55,7.5564,7.5572,7.5685,7.5688,7.5691,7.5766,7.5765,7.5765,7.5764,7.5938,7.5945,7.5952,7.6011,0,0,7.5976,7.5979,0,0,0,0,0,0,0,0,7.5202,7.5207,7.55,7.5502,7.5505,7.5686,7.5688,7.5691,7.5766,7.5765,7.5765,7.5765,7.594,7.5946,7.5952,0,0,0,0,0,0,0,0,0,0,0,0,0,0,0,7.55,7.5502,0,7.5686,7.5688,7.569,7.5766,7.5765,7.5765,7.5765,7.5941,7.5946,7.5951,0,0,0,0,0,0,0,0,0,0,0,0,0,0,0,0,0,0,0,0,0,0,0,0,0,0,0,0,0,0,0,0,0,0,0,0,0,0,0,0,0,0,0,0,0,0,0,0,0,0,0,0,0,0,0,0,0,0,0,0,0,0,0,0,0,0,0,0,0]}]]]